Location: City of Moscow
(46.7306°N, 116.9989°W)
Time: 15:08:03
(UTC+00:00)

Cosmos 1125 Rocket - Visible Passes

Search period start: 16 March 2026 00:00
Search period end: 26 March 2026 00:00
Orbit: 753 x 775 km, 74.0° (Epoch: 16 March)

Date Brightness Start Highest point End Pass type
(mag) Time Alt. Az. Time Alt. Az. Time Alt. Az.
16 Mar 4.8 10:31:45 37° NE 10:31:45 37° NE 10:34:54 10° NNE visible
16 Mar 5.0 12:11:56 20° NW 12:12:16 20° NW 12:16:02 10° N visible
17 Mar 5.6 09:54:16 24° NE 09:54:16 24° NE 09:56:28 10° NE visible
17 Mar 4.6 11:34:27 29° NW 11:34:27 29° NW 11:38:16 10° N visible
18 Mar 6.1 09:16:46 14° NE 09:16:46 14° NE 09:17:45 10° NE visible
18 Mar 4.6 10:56:56 35° NNW 10:56:56 35° NNW 11:00:18 10° NNE visible
19 Mar 5.0 10:19:24 32° NNE 10:19:24 32° NNE 10:22:10 10° NNE visible
19 Mar 5.4 11:59:35 14° NW 11:59:51 14° NW 12:02:40 10° NNW visible
20 Mar 5.6 09:41:51 24° NNE 09:41:51 24° NNE 09:43:53 10° NNE visible
20 Mar 5.1 11:22:01 21° NW 11:22:01 21° NW 11:25:10 10° N visible
21 Mar 6.1 09:04:16 16° NE 09:04:16 16° NE 09:05:24 10° NE visible
21 Mar 5.0 10:44:26 26° NNW 10:44:26 26° NNW 10:47:21 10° N visible
22 Mar 5.2 10:06:50 27° N 10:06:50 27° N 10:09:21 10° NNE visible
22 Mar 5.7 11:47:00 10° NW 11:47:31 10° NW 11:48:26 10° NNW visible
23 Mar 5.6 09:29:13 23° NNE 09:29:13 23° NNE 09:31:11 10° NNE visible
23 Mar 5.5 11:09:23 16° NW 11:09:23 16° NW 11:11:53 10° N visible
24 Mar 6.0 08:51:34 18° NNE 08:51:34 18° NNE 08:52:51 10° NNE visible
24 Mar 5.4 10:31:44 21° NNW 10:31:44 21° NNW 10:34:18 10° N visible
25 Mar 6.3 08:13:55 12° NE 08:13:55 12° NE 08:14:18 10° NE visible
25 Mar 5.4 09:54:05 24° N 09:54:05 24° N 09:56:25 10° N visible
